Hourly Data Report for November 12, 2019

All times are specified in Local Standard Time (LST). Add 1 hour to adjust for Daylight Saving Time where and when it is observed.

PINAWA
MANITOBA
Current Station Operator: ECCC - MSC

50°10'38.020" N
96°03'53.000" W
268.00 m
503B1ER
71448
WEA

Download Data

Hourly Data (November 2019)
Hourly Data Report for November 12, 2019
TIME Temp Definition
°C
Dew Point Definition
°C
Rel Hum Definition
%
Wind Dir Definition
10's deg

Wind Spd Definition
km/h
Visibility Definition
km
Stn Press Definition
kPa
Hmdx Definition


Wind Chill Definition


Weather Definition


00:00 -18.8 LegendMM LegendMM 17 7   99.86   -24 LegendNANA
01:00 -19.1 LegendMM LegendMM 17 7   99.78   -25 LegendNANA
02:00 -19.0 LegendMM LegendMM 17 6   99.71   -24 LegendNANA
03:00 -18.7 LegendMM LegendMM 18 7   99.63   -24 LegendNANA
04:00 -18.4 LegendMM LegendMM 16 8   99.46   -24 LegendNANA
05:00 -18.5 LegendMM LegendMM 17 9   99.35   -25 LegendNANA
06:00 -18.3 LegendMM LegendMM 16 10   99.25   -25 LegendNANA
07:00 -17.6 LegendMM LegendMM 17 13   99.13   -25 LegendNANA
08:00 -17.3 LegendMM LegendMM 16 13   98.98   -25 LegendNANA
09:00 -15.9 LegendMM LegendMM 16 18   98.88   -25 LegendNANA
10:00 -14.2 LegendMM LegendMM 16 14   98.80   -22 LegendNANA
11:00 -12.4 LegendMM LegendMM 16 16   98.65   -20 LegendNANA
12:00 -11.1 LegendMM LegendMM 16 17   98.52   -19 LegendNANA
13:00 -9.2 LegendMM LegendMM 15 20   98.32   -17 LegendNANA
14:00 -7.9 LegendMM LegendMM 16 21   98.21   -15 LegendNANA
15:00 -8.6 LegendMM LegendMM 15 18   98.11   -16 LegendNANA
16:00 -8.8 LegendMM LegendMM 16 15   98.08   -15 LegendNANA
17:00 -8.9 LegendMM LegendMM 17 15   98.01   -15 LegendNANA
18:00 -9.1 LegendMM LegendMM 16 12   97.95   -15 LegendNANA
19:00 -9.0 LegendMM LegendMM 16 13   97.88   -15 LegendNANA
20:00 -8.6 LegendMM LegendMM 16 13   97.76   -15 LegendNANA
21:00 -8.5 LegendMM LegendMM 17 14   97.74   -15 LegendNANA
22:00 -8.2 LegendMM LegendMM 17 9   97.72   -13 LegendNANA
23:00 -7.9 LegendMM LegendMM 16 12   97.67   -13 LegendNANA

Notes on Data Quality.

Legend

  • E = Estimated
  • M = Missing
  • NA = Not Available
Date modified: